Location: Brompton
(51.4000°N, 0.5333°E)
Time: 03:04:01
(UTC+00:00)

IGS 5A - Pass Details

Date: 11 May 2021
Orbit: 583 x 588 km, 97.6° (Epoch: 06 May)

Event Time Altitude Azimuth Distance (km) Brightness Sun altitude
Exits shadow 20:24:31 - 163° (SSE) 2,392 6.1 -6.8°
Reaches altitude 10° 20:25:42 10° 163° (SSE) 1,902 5.6 -7.0°
Maximum altitude 20:29:50 86° 78° (ENE) 594 3.5 -7.4°
Drops below altitude 10° 20:34:00 10° 347° (NNW) 1,920 7.0 -7.9°
Sets 20:36:10 0° 347° (NNW) 2,826 8.0 -8.2°
